Showing default

SAOCOM 1-A, 43641

Orbit data source: Space-Track

SAOCOM 1-A, 43641 is a payload satellite owned by CONAE Tabanera (AR) in SSO that was launched on Mon, 08 Oct 2018 UTC via an FALCON 9 launch vehicle from the Air Force Western Test Range (AFWTR). Payload-class satellites include a variety of spacecraft equipped with specific instruments for various scientific and technological missions. These include communications satellites like Starlink; space stations such as the ISS; scientific satellites like the Hubble; Earth observation satellites from companies like Planet Labs, Umbra, and HawkEye 360; GPS; miniature CubeSats for education and research; and military/defense satellites.

Loading next visibility...
Identifier
43641, 2018-076A
Orbit
SSO
Country
Flag of UnknownUnknown / ARGN
Related business
Manufacturer
INVAP
Mission
Operational Civil Radar Imaging
Bus & Motor
SAOCOM, Unknown motor
Mass
3,000 kg wet, ~2,700 kg dry
Launch date (UTC)
2018-10-08 (7 years ago)
Launch vehicle
FALCON 9
Launch site
Air Force Western Test Range (AFWTR)
Object type
Payload
Rocket body
Debris
Shape & HBR
Cyl + 2 Pan, 10.0 m
Radar Cross Section
19.777 m², Large (>1 m²)

Expand to show TLE details & history
Last TLE update: 8 hours ago

TLE from 8 hours ago
0 SAOCOM 1-A
1 43641U 18076A   25346.94194212  .00001093  00000-0  14385-3 0  9999
2 43641  97.8847 171.3610 0001463  81.3012 278.8366 14.82158705388517
Epoch: 2025-12-12T22:36Z
TLE epoch observation values (Epoch: 2025-12-12T22:36:23.799Z)
Latitude
-0.00009°
Longitude
110.38552°
Altitude
625.386 km
Speed
7.546 km/s
True Right ascension
11h 25m 26s
True Declination
0° 00' 00"
Sunlit
Object was in daylight at epoch
Visualization orbit readout
Latitude
Unknown
Longitude
Unknown
Altitude
Unknown
Speed
Unknown
Apparent Right ascension
Unknown
Apparent Declination
Unknown
Sunlit
N/A
Visualization observer readout
Local Sidereal Time
05:21:54
Azimuth
Unknown
Elevation
Unknown
Doppler factor
Unknown
Orbital elements
Apogee altitude
620.579 km
Perigee altitude
618.532 km
Semi-major axis
6,997.693 km
Eccentricity
0.00015
Inclination
97.8847°
RAAN
171.361°
Arg. of periapsis
81.3012°
True anomaly
278.82003°
Mean anomaly
278.8366°
Eccentric anomaly
278.82832°
Mean motion
3.70775 °/min
Orbital period
97.09 mins
BSTAR
0.00014385
Loading maneuver chart data...
Computing Atmospheric mass density...
Loading historical data...
Loading historical data...
Loading historical data...
Loading historical data...
Loading historical data...
Loading historical data...
Loading historical data...
Other satellites on launch #76 in the year 2018 (2018-10-08 UTC)

Documentation

Showing up to 5 results
|